Location: Foligno
(42.9600°N, 12.7050°E)
Time: 00:38:27
(UTC+02:00)

ISS - Pass Details

Date: 19 July 2018
Orbit: 402 x 408 km, 51.6° (Epoch: 19 July)

Event Time Altitude Azimuth Distance (km) Brightness Sun altitude
Rises 21:24:28 0° 194° (SSW) 2,302 -0.2 -7.1°
Reaches altitude 10° 21:27:07 10° 171° (S) 1,450 -1.5 -7.5°
Maximum altitude 21:29:08 16° 132° (SE) 1,166 -2.2 -7.8°
Drops below altitude 10° 21:31:10 10° 94° (E) 1,459 -1.5 -8.1°
Sets 21:33:50 0° 71° (ENE) 2,324 -0.3 -8.5°
